Theta_e
304 304 304 304 305 305 305 305 305 305 305 306 307 308 308 309 309 308 309 309 309 309 308 307 306 306 306 307 307 307 307 307 308 309 309 309 308 307 306 305 305 306 305 305 309 311 309 307 308 308 308 309 310 311 311 311 312 313 315 315 314 314 311 309 308 308 308 309 308 307 308 308 308 307 307 306 306 307 307 307 308 308 308 307 307 308 306 305
304 304 304 304 304 305 305 305 305 305 305 305 306 307 308 308 308 309 309 309 309 309 308 308 308 307 306 305 306 306 306 307 309 310 311 309 307 306 306 305 305 305 305 306 311 312 308 307 308 308 308 309 311 311 310 311 310 312 315 316 315 312 308 307 307 306 307 308 307 307 307 308 308 307 307 306 306 306 306 307 307 308 308 308 307 307 307 306
303 303 303 303 304 304 305 305 305 306 306 306 306 306 307 308 308 309 310 310 310 309 308 308 307 308 308 306 306 306 306 309 311 311 310 307 305 305 305 305 305 305 305 308 310 309 307 308 308 309 308 309 310 310 310 310 310 311 313 315 313 309 307 306 306 305 305 306 307 307 307 307 307 307 306 306 306 307 307 306 307 307 307 308 307 307 306 306
302 302 303 303 303 304 304 305 305 306 306 307 306 306 307 308 308 308 310 311 310 310 309 307 306 307 308 308 307 306 309 311 312 311 308 305 306 305 305 305 305 305 305 307 309 308 307 308 308 308 308 309 310 310 310 309 310 311 311 313 311 307 307 306 305 304 304 305 306 306 306 306 307 306 306 306 306 307 307 307 308 308 307 308 308 307 306 305
302 302 302 303 303 303 304 304 305 306 306 307 307 306 307 308 308 308 308 310 311 311 310 308 306 306 307 308 307 309 314 313 309 308 305 305 306 305 305 305 305 305 305 307 308 307 307 307 308 308 308 308 309 310 309 308 308 309 310 311 309 307 307 306 304 304 304 304 306 306 305 306 307 306 306 305 306 307 308 308 309 309 309 308 308 308 307 306
302 302 302 302 303 303 304 304 304 305 307 307 307 307 307 308 308 307 308 308 310 311 311 309 306 306 307 307 307 310 315 312 307 307 305 305 306 305 305 305 304 305 305 306 308 308 307 308 308 308 309 308 309 310 308 307 307 307 309 309 307 306 306 305 304 303 303 304 306 306 305 305 306 306 306 305 305 307 308 308 308 308 308 306 307 307 308 308
304 304 303 302 302 303 303 304 304 305 307 308 308 307 307 308 308 308 307 307 309 310 310 309 306 307 307 307 308 311 314 311 306 306 305 305 305 305 305 304 304 305 305 306 307 308 307 308 308 308 309 308 309 309 307 306 307 306 307 308 306 305 305 304 303 302 302 303 305 304 304 305 305 306 306 306 306 306 307 308 308 307 306 305 306 307 307 308
309 308 307 304 303 302 303 304 304 305 307 308 308 308 308 308 308 308 308 307 309 310 311 308 307 307 308 310 313 314 314 309 305 305 306 305 305 306 306 305 304 305 306 306 307 307 308 308 308 308 308 308 308 308 307 306 306 306 307 308 306 304 304 303 302 302 302 303 304 303 304 304 305 306 306 306 306 307 307 308 308 308 307 306 306 306 307 306
312 312 311 308 305 303 303 304 304 305 307 308 308 308 308 308 308 308 308 307 308 310 311 308 308 307 307 312 318 317 311 306 305 306 306 305 306 306 306 306 305 305 306 307 307 307 307 308 308 308 308 307 307 307 306 306 307 306 307 307 305 305 305 303 303 303 303 303 303 303 303 304 305 305 306 306 306 306 307 308 307 308 308 307 307 307 306 306
312 312 312 312 309 305 302 303 304 305 307 308 308 308 309 309 309 308 307 307 308 310 310 309 309 307 307 313 319 316 308 305 307 307 306 305 306 307 307 307 305 305 306 307 307 306 307 308 308 307 307 307 307 306 305 306 306 306 306 306 306 305 304 304 304 304 304 303 303 304 304 304 305 305 306 307 308 307 307 308 307 308 307 307 307 307 306 307
312 312 312 313 312 308 303 303 304 305 306 308 308 309 309 309 309 308 308 308 308 310 310 310 308 307 310 314 316 312 306 306 307 306 305 305 305 306 308 307 305 305 306 307 307 306 306 307 307 306 306 306 306 306 305 305 305 305 305 306 305 304 304 304 304 304 304 304 304 303 303 304 304 305 306 307 308 308 307 307 307 307 307 306 306 307 308 308
313 313 312 313 313 311 306 302 303 305 306 308 309 309 309 310 310 308 308 307 308 310 310 310 308 307 312 315 313 309 306 305 306 305 305 305 306 305 306 308 306 304 305 306 308 309 307 306 306 306 305 306 306 306 305 304 304 304 304 305 306 304 304 305 304 304 304 304 304 303 305 306 306 307 308 307 307 307 307 307 307 307 307 307 307 308 309 309
313 313 313 312 313 312 308 303 303 305 306 308 309 309 310 311 311 309 308 308 309 310 310 310 307 307 314 317 310 306 306 305 305 306 305 306 307 306 306 308 305 303 304 304 306 308 306 304 305 305 305 306 306 305 304 304 303 304 303 304 307 307 306 306 305 305 305 305 305 304 308 310 309 310 308 307 308 307 307 307 307 308 308 308 309 309 311 311
313 313 313 313 313 313 310 304 303 306 307 308 309 309 311 311 311 310 309 308 309 311 311 309 308 310 316 315 307 304 305 304 306 306 305 307 309 308 308 308 305 302 303 304 305 305 303 303 304 304 304 305 305 304 304 304 303 305 305 306 309 310 309 307 306 306 306 306 306 306 309 310 310 312 309 308 308 307 307 307 307 308 309 309 311 312 313 313
312 312 312 312 312 313 312 306 303 307 307 308 309 310 311 312 311 310 309 309 311 311 309 308 308 314 319 314 306 304 305 305 306 307 304 307 311 310 310 309 306 303 304 303 303 302 302 304 305 305 304 303 304 305 307 306 305 306 308 311 311 311 311 308 306 307 307 307 306 307 311 309 309 311 310 308 308 307 307 307 308 309 309 309 311 312 313 313
311 312 312 312 312 313 313 307 304 307 308 308 309 310 312 313 311 311 311 310 312 310 310 313 311 313 320 317 308 305 306 306 307 307 304 305 309 312 311 310 308 309 307 303 303 304 306 309 310 309 305 303 304 306 309 309 309 308 309 312 313 312 312 309 306 306 307 307 306 307 309 308 308 309 310 308 308 307 307 307 308 309 309 309 311 313 313 314
309 311 311 312 312 313 312 307 305 307 308 308 310 311 312 312 311 310 310 309 310 308 310 317 313 312 316 313 309 307 308 307 307 308 305 304 307 310 311 311 311 312 310 307 308 312 313 314 314 311 307 305 307 308 311 313 313 312 310 310 312 310 309 307 308 307 306 307 307 307 307 307 308 309 309 309 308 308 308 308 308 309 309 310 313 314 313 315
307 309 311 311 311 313 312 306 305 307 308 308 311 312 312 312 310 310 312 308 308 309 309 312 312 316 317 313 312 311 309 308 307 307 306 306 306 308 311 313 313 313 314 315 315 317 317 315 313 312 309 307 308 308 313 316 314 313 312 310 311 308 306 307 310 308 305 307 307 307 308 307 308 308 309 310 309 308 308 308 308 309 310 311 314 314 315 315
305 307 309 311 311 312 311 306 306 307 308 308 311 315 315 314 312 313 316 313 315 319 319 316 316 322 323 317 315 312 309 308 306 307 308 307 305 307 310 313 315 315 316 319 318 318 317 315 313 313 315 312 309 310 312 313 311 311 312 311 311 309 307 308 309 306 305 307 308 308 308 308 308 309 309 310 310 310 309 309 310 310 310 311 313 314 316 316
303 305 307 310 310 312 311 306 306 307 308 308 311 317 319 318 320 321 317 316 321 320 322 322 318 322 322 317 314 310 309 309 308 309 308 307 307 311 313 314 318 317 315 317 318 317 315 315 318 318 316 312 309 309 309 309 309 310 311 311 311 309 308 309 309 305 305 308 308 308 309 308 308 308 309 309 310 311 311 311 312 311 311 312 312 314 317 318
301 302 305 308 308 312 310 306 306 307 308 308 310 315 316 316 322 323 314 315 319 315 318 319 315 318 317 314 310 308 312 314 312 312 307 306 310 315 316 316 319 318 316 318 318 318 316 315 320 317 311 307 306 307 308 309 310 309 310 309 310 310 309 309 308 305 305 307 308 308 308 307 307 308 308 309 310 312 312 312 312 311 311 312 314 317 319 319
299 300 302 305 307 311 310 306 306 307 307 306 309 313 312 310 312 312 310 315 318 313 315 315 314 317 313 311 308 305 316 318 315 316 309 309 315 315 315 315 318 319 318 320 319 317 317 317 315 309 306 306 307 307 307 309 310 311 311 309 310 312 310 307 306 305 306 307 308 309 309 307 308 308 308 310 311 312 313 313 313 314 314 312 315 320 320 319
298 298 300 303 305 310 310 306 306 309 309 305 306 308 307 305 305 307 309 315 318 315 316 315 316 317 313 315 309 307 320 318 317 320 310 313 318 313 314 313 314 317 318 321 319 315 317 316 309 304 305 308 308 307 307 308 310 311 311 310 311 312 308 306 306 307 306 306 308 310 309 308 309 310 312 312 312 312 313 312 313 316 317 317 319 321 320 319
298 297 299 301 305 310 309 308 307 310 312 308 305 304 304 303 304 308 312 317 320 317 314 312 313 314 313 312 307 310 319 313 315 317 309 315 321 313 313 314 314 315 316 320 318 317 318 311 304 304 306 308 309 309 309 310 311 313 315 314 313 311 308 307 308 308 308 308 308 309 310 313 315 314 315 315 312 312 312 312 312 314 317 319 321 321 318 318
297 297 298 299 305 310 309 310 309 310 314 313 307 304 304 304 304 309 315 319 320 317 313 313 314 313 309 307 309 313 315 312 314 313 307 313 319 317 315 312 313 315 318 320 317 319 317 306 304 307 307 308 311 310 312 314 312 312 317 317 313 310 310 311 311 312 311 310 310 309 311 316 315 312 313 315 316 315 313 314 313 313 316 317 318 319 318 317
297 297 297 299 305 310 312 313 310 311 316 313 308 304 304 305 304 309 316 318 319 319 314 315 316 313 310 311 311 312 315 316 312 309 308 309 312 318 318 314 313 314 319 317 313 317 312 304 305 310 310 313 314 312 313 314 311 310 314 313 312 311 313 314 312 312 311 311 312 309 310 312 310 309 313 315 317 317 315 317 316 314 316 317 316 316 317 316
297 298 297 299 304 309 313 312 309 312 315 311 307 303 304 305 304 309 319 320 321 320 314 314 314 312 313 313 311 313 321 319 312 310 310 307 311 316 314 315 315 312 316 313 309 315 312 308 309 310 312 315 315 314 313 313 312 313 312 311 312 311 312 314 312 312 313 313 313 312 311 311 311 312 314 315 315 316 315 316 318 315 315 317 316 315 316 317
297 298 298 299 305 309 309 307 308 312 311 307 305 303 304 306 306 313 322 320 320 318 315 316 312 309 312 313 312 316 318 316 316 315 308 305 311 315 312 316 316 312 315 313 311 314 312 313 313 311 313 315 313 312 311 311 313 315 311 310 312 311 312 313 313 314 315 314 315 316 314 313 316 317 314 313 313 315 316 315 318 317 315 317 316 315 317 318
297 298 298 299 304 309 308 306 309 312 309 306 305 303 304 305 308 318 321 318 319 318 315 315 312 310 315 316 316 316 312 313 315 314 310 308 311 312 314 320 317 312 314 314 315 315 310 309 311 313 314 313 310 308 308 310 312 311 308 309 311 311 312 312 313 314 313 314 316 317 316 313 315 316 313 313 313 315 317 314 316 317 317 319 318 317 318 318
297 298 299 300 306 309 309 311 312 310 308 306 303 303 305 308 315 321 319 317 320 320 316 315 314 314 318 318 317 316 314 313 313 313 315 314 312 312 313 317 316 313 314 313 315 314 307 304 308 311 311 308 307 306 307 309 310 309 310 315 316 314 313 312 313 312 312 318 318 315 315 310 312 319 318 315 315 314 313 311 314 316 316 320 320 319 317 317
297 298 300 303 307 307 309 314 311 307 307 305 303 306 311 317 319 319 318 318 319 320 317 316 317 316 317 316 315 317 316 314 313 315 316 315 314 313 312 313 313 313 315 315 315 313 308 307 309 307 305 306 309 309 307 308 309 310 314 316 316 315 312 311 312 311 314 321 316 311 313 310 313 321 320 314 312 312 311 310 312 313 314 319 321 319 316 315
297 299 302 304 306 306 309 310 306 305 306 303 306 313 318 319 317 316 318 319 320 319 316 315 317 316 316 315 316 316 316 316 315 315 316 315 314 314 314 315 314 314 316 316 315 315 313 311 309 306 304 305 311 313 311 309 309 312 314 312 311 313 311 312 315 316 317 317 311 308 311 313 314 315 311 310 310 310 312 312 313 313 314 316 319 319 317 316
297 300 303 305 305 306 307 306 304 306 305 304 311 319 317 315 316 317 318 318 317 317 315 314 316 316 315 316 317 315 315 318 317 314 315 314 313 317 321 320 316 315 317 314 313 314 316 313 309 309 307 304 308 314 313 312 310 311 312 310 311 313 310 311 315 315 316 314 310 307 308 312 313 310 310 310 310 311 312 313 315 315 314 315 318 320 319 317
297 301 304 304 305 306 305 304 305 305 304 307 315 318 314 314 315 316 317 316 316 316 316 315 315 316 316 316 316 314 315 318 316 315 315 314 314 316 319 319 316 314 313 312 312 312 314 317 312 310 309 304 305 308 308 310 311 311 312 310 311 312 310 312 313 313 316 315 311 307 309 313 311 309 313 311 310 313 311 311 314 314 313 314 315 317 316 316
298 302 304 304 307 308 305 304 305 304 305 311 316 315 315 314 313 314 316 315 314 315 316 316 316 318 317 315 314 314 315 315 315 316 316 314 314 314 316 317 316 313 312 313 313 311 312 317 311 305 305 303 305 305 303 308 312 311 310 309 310 309 308 313 314 312 313 313 311 309 313 316 312 309 312 310 310 313 311 311 312 311 312 311 312 314 313 313
299 302 304 306 309 309 305 304 305 304 308 314 316 315 315 313 313 314 315 315 313 312 314 316 318 319 317 315 314 315 314 314 316 316 314 313 314 313 314 315 314 314 314 312 312 311 312 314 308 303 304 302 302 304 302 307 311 309 308 310 310 306 305 312 314 310 309 311 312 312 313 313 311 311 312 309 310 311 311 311 310 312 313 312 315 317 315 314
302 305 307 309 310 308 305 304 304 305 311 315 316 316 315 312 313 314 313 313 313 312 312 313 315 315 314 313 314 315 314 314 317 314 312 314 315 314 314 315 313 313 314 312 309 310 312 313 309 306 307 303 300 303 303 303 306 308 309 310 309 306 305 309 311 311 312 313 312 311 311 310 309 312 313 310 311 311 311 310 310 314 316 317 322 324 320 318
303 307 309 309 308 306 305 304 304 308 312 314 315 316 314 312 312 312 312 312 312 312 311 311 313 313 313 312 312 314 313 313 314 312 312 314 315 314 313 313 313 311 311 311 309 310 312 314 311 306 307 305 301 305 310 306 304 307 308 307 309 311 311 310 309 310 311 312 313 312 310 310 309 310 311 310 310 310 309 310 311 312 315 317 321 324 323 320
304 308 311 310 307 305 305 304 306 310 312 313 314 314 313 313 312 311 310 311 310 310 310 311 312 311 311 312 312 312 312 311 311 311 312 313 314 316 313 311 312 310 308 309 309 310 312 315 314 306 304 306 304 307 314 312 306 305 306 305 307 309 311 312 310 310 311 311 312 312 310 310 312 312 310 308 308 308 308 310 310 309 312 315 317 320 322 321
306 307 310 309 303 302 304 306 310 312 312 313 313 312 312 312 313 310 309 312 312 310 311 312 312 311 310 311 311 310 311 312 311 310 311 312 313 315 314 313 314 311 307 308 309 310 311 315 317 309 304 307 309 310 314 316 312 308 307 308 307 307 309 310 311 309 309 311 311 311 310 310 312 312 309 308 308 308 308 310 310 310 310 312 315 318 319 320
305 306 308 306 300 299 305 309 311 311 312 313 311 310 311 310 312 311 310 312 313 311 310 311 312 311 310 311 310 310 310 311 310 309 310 311 310 312 314 312 314 313 308 308 309 309 310 313 315 311 308 312 316 310 307 311 313 310 310 310 310 310 310 310 312 310 308 310 311 310 310 310 311 311 309 308 308 308 309 310 310 311 310 310 313 315 318 320
306 307 307 303 299 301 308 310 310 309 310 312 310 309 310 308 310 311 310 310 311 310 309 309 310 311 310 311 311 310 309 310 311 310 310 312 311 312 313 308 309 310 308 308 311 309 307 309 311 312 313 313 311 304 300 303 307 307 308 308 308 310 310 310 313 312 310 311 310 309 310 310 310 310 309 309 309 309 311 312 310 310 309 309 311 314 319 322
306 306 306 303 301 305 310 310 310 310 309 309 308 307 308 308 309 310 309 309 309 310 310 309 309 311 311 311 310 309 309 309 311 312 311 310 312 313 310 306 307 309 308 310 311 308 307 310 311 312 314 311 305 302 301 302 305 307 308 308 307 309 310 309 310 309 309 310 310 309 310 310 310 311 310 310 311 311 311 311 310 310 309 311 312 313 316 318
302 302 304 304 303 306 309 309 310 311 310 309 308 307 307 307 308 308 308 309 309 309 310 309 309 310 310 310 309 309 310 309 309 312 310 309 311 309 304 305 307 308 310 312 311 309 310 312 312 311 312 312 309 309 308 306 306 307 308 309 308 308 308 307 307 308 308 309 310 310 309 309 311 313 311 310 310 310 309 309 310 310 310 311 312 312 312 313
301 303 305 305 303 306 308 308 309 309 310 311 309 308 308 307 308 309 309 309 309 308 309 309 309 309 309 310 309 308 310 309 309 311 309 308 311 308 304 306 308 308 310 311 310 309 311 311 310 310 312 312 313 314 315 312 310 307 307 309 310 310 309 309 309 311 310 310 311 311 310 309 310 311 311 310 311 310 310 310 309 310 310 310 310 311 311 313
302 305 306 306 305 307 308 307 307 307 308 309 309 308 308 307 308 308 308 308 309 309 309 309 308 308 309 309 308 308 309 309 309 309 308 308 310 310 306 305 306 306 308 310 310 310 310 309 310 312 312 312 311 312 313 312 310 309 309 310 311 311 310 309 309 310 310 310 311 310 310 310 309 310 310 310 310 309 309 309 309 309 309 310 310 310 311 312
302 303 305 304 304 307 308 307 307 307 307 307 307 307 307 307 307 307 307 308 308 308 308 308 308 307 308 309 308 308 309 309 309 309 307 307 308 310 307 304 305 306 306 309 309 307 307 310 311 311 311 311 310 311 311 311 310 310 311 311 312 312 311 310 309 309 309 311 310 309 310 311 309 308 309 309 308 308 308 308 308 308 308 308 309 309 309 310
302 302 302 302 302 305 307 305 304 306 307 307 307 307 307 307 307 306 307 308 307 307 307 308 309 309 309 309 309 309 309 309 310 309 308 308 309 310 309 306 306 306 305 305 305 304 307 310 310 309 311 312 311 312 312 311 311 310 311 311 311 311 312 311 310 309 309 310 309 308 309 309 308 307 307 307 307 307 307 307 307 307 307 308 308 308 309 309
301 300 300 300 301 303 303 303 302 304 305 306 307 307 307 307 307 307 307 307 307 307 307 307 309 310 310 310 309 309 309 308 310 310 308 309 310 309 310 309 307 304 303 304 304 304 307 311 310 308 310 311 311 311 311 311 311 310 311 311 310 310 311 310 310 310 310 310 309 308 309 308 307 307 307 307 307 307 306 307 307 306 307 307 308 308 308 308
298 298 298 299 300 301 300 301 302 303 304 305 306 306 306 306 306 306 307 307 306 306 308 307 307 308 309 309 309 309 309 308 309 310 308 309 310 309 309 310 308 304 304 305 305 305 308 312 310 307 308 310 309 309 311 312 310 309 310 310 309 309 310 309 309 309 309 309 309 308 309 308 307 307 308 307 307 307 307 306 306 307 308 308 308 307 307 307
296 297 297 297 298 300 301 301 302 302 303 304 305 306 305 305 306 305 306 306 305 306 307 306 307 307 307 308 309 308 307 306 306 307 306 307 308 308 308 309 308 307 306 307 306 306 307 309 308 306 308 309 307 307 310 310 309 309 310 309 308 308 309 308 308 308 308 308 309 309 309 308 307 308 309 308 307 307 307 307 307 307 308 308 307 306 306 306
295 296 297 296 297 299 299 300 301 301 302 303 304 304 304 304 305 304 304 305 305 304 303 304 305 306 306 307 307 305 304 303 303 303 304 305 306 306 307 307 307 308 307 307 307 307 307 308 307 307 309 308 307 309 309 308 309 309 308 308 307 307 307 307 307 308 308 308 308 308 308 307 307 308 308 307 307 307 307 307 308 307 307 307 306 305 305 306
Wind_Speed
19 19 19 19 19 19 18 18 18 17 16 15 13 12 11 10 11 11 10 10 10 12 13 11 10 10 12 13 14 14 13 11 11 10 7 3 2 5 9 10 11 9 6 5 5 6 7 7 8 7 6 4 3 2 3 3 1 1 2 3 4 3 1 3 4 2 1 2 3 4 4 3 4 3 2 2 2 4 5 6 6 6 8 11 7 8 11 10
19 19 19 19 19 19 19 18 18 18 17 16 15 14 12 11 11 11 12 12 11 12 13 11 9 8 8 10 11 10 10 10 11 10 6 3 4 7 9 9 9 7 6 6 6 8 7 4 6 7 5 3 3 3 3 3 2 3 2 4 3 2 2 3 5 4 3 2 2 4 4 4 2 4 3 1 4 6 7 8 7 9 10 12 13 10 12 12
19 19 20 20 20 19 19 19 18 18 18 17 17 15 14 12 12 11 11 12 12 12 12 10 9 8 6 6 7 6 6 8 9 5 3 2 4 7 7 6 7 7 8 6 5 7 7 6 4 5 4 3 3 3 2 2 2 2 2 3 1 2 2 3 5 5 4 4 1 3 1 2 1 2 2 2 5 6 10 8 7 11 12 11 13 14 15 15
19 19 19 20 20 20 20 20 19 19 18 18 17 16 15 13 12 11 11 11 11 11 12 10 8 8 7 5 3 1 2 4 3 2 2 2 5 8 7 6 6 7 8 6 5 8 9 8 6 3 3 4 3 4 3 2 1 0 1 3 1 3 2 3 4 4 4 4 3 3 2 2 1 2 2 3 5 6 9 9 10 12 12 11 11 14 17 16
19 20 20 20 20 20 20 20 20 19 19 18 17 17 15 13 12 12 11 11 11 10 11 10 8 7 6 5 2 3 1 2 2 2 2 6 7 8 7 6 6 7 9 6 6 8 8 8 6 3 3 3 3 3 2 2 1 1 2 1 3 2 2 2 3 3 4 2 2 1 1 2 1 2 5 6 6 6 4 5 8 8 6 6 5 8 13 14
21 21 21 21 20 20 20 20 20 20 19 18 17 17 15 14 13 12 11 11 10 10 10 9 7 6 5 4 1 3 0 1 3 1 4 7 8 8 7 6 6 7 8 6 7 7 6 6 4 3 3 3 4 2 2 3 1 2 2 2 3 2 1 2 3 2 3 3 2 0 1 3 1 4 6 9 13 10 4 2 3 2 5 6 4 4 8 11
23 24 24 23 22 21 20 20 20 20 19 18 18 18 17 15 14 13 12 11 10 9 9 8 6 6 3 1 3 2 1 0 2 3 6 7 7 6 5 4 4 6 4 5 8 6 4 5 4 3 3 3 4 2 3 1 1 2 4 1 3 1 1 1 2 0 2 3 3 3 4 3 5 6 4 10 16 14 9 4 3 4 6 6 4 4 6 8
25 26 26 25 24 23 22 21 21 21 19 19 19 19 19 17 15 14 12 10 9 9 8 6 5 5 1 5 3 1 1 1 2 5 7 7 6 5 4 3 1 2 3 8 8 6 4 5 5 3 3 2 2 1 2 1 3 3 4 0 2 1 1 2 1 1 1 3 3 3 5 7 8 6 6 13 15 12 11 9 7 6 6 6 7 7 7 7
26 27 27 26 26 25 23 22 22 22 21 20 20 20 19 18 15 14 12 10 9 8 7 6 4 3 3 4 2 2 2 1 2 5 7 6 5 5 4 3 1 2 4 8 7 7 4 2 3 3 4 3 2 1 1 1 1 2 2 1 2 1 2 2 2 3 2 2 0 2 7 8 7 5 10 17 16 12 10 10 10 8 8 8 7 8 8 9
27 28 28 28 27 26 24 23 22 23 22 22 22 21 20 18 15 13 12 10 8 7 6 5 3 2 3 3 3 2 2 3 3 6 6 5 4 5 4 2 2 3 5 7 5 6 4 3 4 4 4 2 2 0 2 1 1 1 2 2 1 1 2 3 2 2 2 3 3 3 8 8 1 1 8 10 8 8 8 8 8 7 8 8 7 8 8 9
28 29 29 29 29 28 26 23 22 23 24 24 23 23 20 18 15 12 10 8 7 7 6 5 3 2 2 2 3 1 2 3 3 5 5 5 3 3 4 4 3 3 4 6 6 6 6 6 7 2 1 2 1 1 1 1 1 1 2 3 2 2 3 4 4 3 1 2 5 5 9 10 1 2 12 9 1 4 7 7 7 7 8 8 9 9 8 8
28 29 29 30 30 30 28 25 22 23 24 25 24 23 21 17 13 9 8 7 6 6 5 4 3 3 2 2 3 1 3 2 2 4 5 6 3 1 4 5 3 2 4 5 4 4 6 5 5 3 1 3 1 2 1 2 0 1 1 3 2 3 4 5 5 3 3 1 5 3 7 7 6 9 16 10 5 5 6 6 7 8 8 8 9 8 7 7
27 29 30 30 31 31 30 26 23 23 25 26 25 23 20 14 9 7 5 6 5 5 4 3 4 3 1 2 2 3 3 2 1 4 5 5 3 1 4 4 2 1 4 5 5 6 7 4 2 3 1 2 1 1 1 1 0 1 2 1 1 2 3 5 4 4 4 2 6 3 4 4 8 15 14 5 7 7 6 7 7 8 8 8 8 7 7 6
25 27 28 29 30 31 31 28 24 24 25 26 25 23 19 12 7 5 4 4 4 4 3 3 5 3 2 1 1 3 2 1 1 2 4 3 1 2 2 3 3 3 2 4 6 6 3 1 0 1 3 1 1 0 1 1 1 2 1 1 1 2 2 2 2 4 3 2 6 3 3 5 6 10 11 5 8 8 7 9 8 8 8 7 7 6 6 5
24 25 26 27 29 30 31 29 25 25 26 27 26 22 16 10 5 3 2 3 2 2 2 4 6 3 2 2 1 1 1 1 2 2 4 2 1 2 2 2 2 4 3 1 3 1 3 2 1 1 2 1 1 0 2 2 2 1 0 2 2 3 2 1 1 2 2 2 4 4 2 7 7 4 8 6 7 8 8 8 8 9 7 6 6 6 6 6
23 24 25 26 27 28 29 28 25 26 27 28 27 19 11 8 4 1 1 1 1 3 4 3 6 3 2 1 1 1 2 2 1 3 3 1 1 1 4 4 1 2 2 2 3 2 2 1 1 0 0 1 1 2 3 2 2 2 2 3 2 4 3 1 1 2 2 2 4 6 3 6 5 2 6 6 7 8 8 9 9 9 7 6 6 5 6 5
24 24 25 25 26 26 27 26 24 25 27 28 26 15 8 6 3 2 2 1 1 4 5 2 2 3 1 0 1 1 1 1 2 4 3 2 1 2 3 4 3 3 2 2 1 0 1 1 1 0 1 2 3 2 2 3 3 2 3 4 4 4 3 2 1 2 3 3 4 6 6 9 10 8 7 8 9 9 9 9 9 8 7 6 6 5 6 6
24 24 24 25 26 27 26 23 22 24 25 26 22 11 6 5 2 2 3 3 2 4 3 1 2 1 1 0 0 1 3 1 4 4 3 3 1 2 3 3 2 3 3 1 2 1 2 2 2 1 2 3 3 3 2 2 2 1 1 3 5 3 4 3 1 1 3 4 5 5 7 12 14 12 11 9 8 10 10 9 8 7 7 6 6 6 6 6
24 24 24 24 25 26 26 21 20 23 23 23 18 9 5 5 3 0 3 2 1 1 0 1 1 1 1 1 0 2 4 4 3 1 1 3 2 2 3 3 1 2 2 1 3 3 2 2 1 1 3 3 2 3 2 1 1 3 3 4 5 5 4 1 3 1 2 2 6 7 7 11 13 12 12 10 7 9 10 8 7 7 6 6 6 6 6 6
23 24 23 23 23 26 25 19 18 21 21 21 14 6 5 5 2 1 5 5 1 1 2 1 1 2 1 1 2 5 5 2 1 1 1 5 3 2 3 3 1 1 3 2 3 2 1 1 3 2 1 2 3 2 2 2 2 4 5 5 6 6 4 1 3 2 1 1 6 6 7 10 12 13 14 11 8 9 10 8 7 6 5 6 7 7 7 6
22 23 23 22 21 24 23 16 16 19 19 18 14 7 3 3 2 1 5 5 1 2 2 2 2 3 1 2 3 5 2 1 1 2 2 6 2 1 2 4 2 2 4 3 3 1 2 2 4 2 1 3 2 3 3 3 3 4 5 5 5 5 4 2 3 3 1 1 5 5 8 11 12 13 14 11 9 8 7 7 6 6 6 6 7 7 7 6
22 22 22 22 20 22 22 14 14 17 18 20 18 10 4 2 2 2 1 4 1 1 1 1 1 2 1 1 3 4 0 1 1 3 4 7 1 2 1 3 3 3 3 2 3 1 2 4 2 2 2 3 3 2 3 2 3 4 4 4 5 4 2 2 2 3 2 1 4 6 8 11 14 14 13 9 5 4 2 2 3 3 5 7 8 7 7 6
23 22 22 21 19 21 19 10 13 15 16 20 18 9 3 3 3 3 2 4 3 1 1 1 2 0 1 0 3 4 1 1 1 2 6 6 2 1 1 3 5 4 3 4 4 3 4 3 2 1 2 3 2 1 1 3 3 4 5 4 4 2 1 1 2 3 2 2 3 6 6 9 11 10 8 3 1 2 3 2 2 2 4 4 4 5 7 7
24 22 22 20 19 20 14 8 11 12 11 14 15 10 10 8 1 5 2 3 2 0 1 1 1 2 1 1 4 3 2 2 1 0 6 5 0 1 1 2 3 4 4 4 5 4 3 1 1 2 2 1 0 1 1 3 3 4 4 3 3 2 2 1 3 5 2 1 2 5 5 6 6 4 5 2 0 3 3 4 5 5 6 2 2 2 5 7
25 24 22 19 19 18 10 4 9 11 6 6 10 14 17 11 2 7 2 2 2 1 0 0 0 1 2 2 3 2 1 2 1 2 5 4 1 1 0 1 1 2 2 1 2 3 2 1 1 2 2 1 0 1 2 2 2 3 1 1 2 3 3 2 6 6 3 2 3 2 5 6 5 4 7 4 2 5 4 6 7 7 7 5 4 4 5 5
25 24 22 18 18 18 6 2 9 12 4 3 9 18 18 8 4 7 1 1 2 1 0 0 1 1 2 1 2 1 1 1 1 2 3 3 1 1 1 1 0 0 1 2 1 1 0 0 2 1 1 2 1 2 2 5 2 2 1 1 2 2 2 3 5 4 1 3 4 3 2 5 5 5 9 5 3 7 4 6 8 7 7 7 7 6 7 6
25 23 22 17 16 16 6 1 10 10 2 4 15 20 14 3 6 6 0 1 2 0 0 0 0 1 2 1 1 2 1 1 0 1 2 3 2 0 0 1 1 0 1 1 1 1 2 1 1 1 1 2 3 3 3 5 4 2 4 2 1 0 1 2 2 1 3 4 3 3 5 3 6 6 7 3 4 9 6 7 8 6 7 8 7 7 7 8
24 23 21 16 11 11 7 6 9 7 4 12 18 16 8 2 5 3 1 1 1 0 1 1 0 1 1 2 1 1 0 1 1 1 1 1 2 1 1 2 1 0 0 2 2 2 1 2 2 1 2 2 2 1 3 1 1 2 4 2 0 1 1 1 1 3 3 3 4 4 4 2 6 6 4 4 3 8 8 8 8 8 8 7 7 8 7 8
24 22 19 15 8 7 9 7 3 4 11 17 17 13 4 3 3 0 1 1 0 1 0 1 0 1 1 1 1 1 1 0 1 1 2 1 1 1 1 2 1 1 0 2 2 1 2 1 1 0 1 1 1 3 4 3 1 1 2 2 1 2 2 1 2 2 1 1 5 7 5 3 5 6 4 2 2 7 6 4 5 7 8 8 7 8 7 7
23 20 17 12 7 8 10 4 0 8 16 17 15 10 2 3 1 2 0 2 1 1 2 0 0 2 3 2 0 1 1 1 0 1 1 0 1 0 1 1 0 0 2 1 1 1 1 0 1 1 1 1 2 1 3 3 2 2 2 2 2 2 1 1 2 1 0 2 6 6 5 3 3 6 5 2 2 4 1 3 2 2 4 7 7 7 7 7
23 18 12 8 6 9 8 1 5 15 16 16 14 6 1 1 1 1 2 1 2 0 1 2 1 2 3 3 1 2 2 1 1 2 1 1 0 1 0 0 1 2 2 1 1 1 2 1 1 1 2 1 1 0 2 2 2 2 3 3 3 2 1 1 0 2 1 4 4 3 2 2 2 6 5 2 3 1 1 1 2 2 3 5 6 7 7 7
22 15 7 4 6 7 5 5 13 17 16 15 10 2 0 2 1 3 3 1 2 1 1 1 1 2 3 1 1 2 2 1 2 2 1 2 1 2 1 0 1 2 2 1 1 0 1 1 1 1 1 2 2 2 2 2 2 3 3 2 1 1 1 1 1 1 3 4 3 1 2 1 4 8 9 10 11 8 4 2 1 0 1 2 3 4 6 7
20 12 4 3 5 5 6 11 16 16 15 12 5 1 1 1 2 3 2 2 1 1 1 1 2 3 2 2 1 1 1 2 2 1 1 1 1 2 2 3 2 1 2 2 3 2 1 2 1 1 1 2 2 1 1 2 1 0 1 0 1 1 1 3 3 3 3 2 3 2 1 0 4 6 8 10 11 8 4 1 3 3 1 2 3 3 0 4
16 8 4 4 5 5 8 12 14 15 15 8 1 1 1 2 3 0 1 2 1 1 1 1 3 3 1 1 0 0 0 1 2 2 2 1 1 2 2 3 3 1 2 1 2 2 1 2 2 1 1 2 2 2 2 1 1 2 1 2 1 1 1 3 2 2 3 1 2 2 1 3 4 3 4 6 7 5 3 0 3 3 1 1 4 5 5 1
13 6 6 6 5 6 10 13 13 13 11 4 1 1 2 3 3 0 0 1 0 2 2 1 1 3 1 1 0 0 1 0 1 2 1 1 1 2 1 2 2 1 1 0 2 1 2 2 2 1 2 1 1 1 2 0 1 3 1 3 1 1 1 2 1 1 1 2 2 2 2 5 4 6 9 10 10 7 4 1 2 1 1 0 3 5 5 5
13 7 6 5 4 7 10 12 11 9 6 3 1 3 3 2 2 1 1 1 1 2 4 2 2 2 1 1 0 1 0 1 1 2 1 1 2 2 1 1 1 2 1 2 0 2 0 2 1 2 3 1 1 1 0 1 0 2 2 0 4 3 2 2 2 1 2 1 3 3 3 5 3 7 10 7 6 6 3 1 1 2 1 0 4 6 6 6
17 10 5 3 5 8 9 10 9 6 3 2 2 3 2 1 1 1 1 0 0 1 3 2 1 1 1 1 0 0 1 0 2 1 1 2 1 0 0 0 1 1 2 0 1 1 1 2 2 1 2 2 1 1 1 1 1 2 1 3 3 1 1 1 1 3 1 3 4 3 4 5 1 4 6 4 5 6 2 1 0 1 2 2 6 6 7 7
16 10 6 5 7 8 7 8 7 3 1 1 3 4 1 1 1 2 2 0 0 1 0 1 1 1 0 1 1 0 1 1 3 2 2 2 1 1 1 1 1 1 2 3 1 1 2 0 3 1 1 1 1 2 2 2 1 1 2 2 1 1 1 0 0 1 2 3 4 2 4 4 3 3 5 6 6 5 5 4 5 7 5 4 5 4 5 5
11 6 3 3 5 6 6 6 5 2 2 2 4 4 1 1 0 2 2 1 0 0 0 3 2 1 1 1 1 1 2 1 2 2 1 1 0 1 2 1 1 1 1 2 1 1 1 1 2 2 1 0 1 0 1 1 0 1 2 3 1 2 2 2 1 1 1 3 4 3 3 3 3 5 4 4 4 6 8 9 9 11 9 6 6 5 4 4
6 3 1 1 4 5 5 5 3 2 2 2 3 3 0 0 1 3 2 1 1 1 1 2 1 1 1 1 1 1 1 1 2 1 1 0 1 1 1 1 0 1 1 2 1 2 1 2 2 2 1 1 0 2 3 2 1 1 1 1 1 1 1 1 1 2 2 3 4 4 4 4 4 3 1 2 6 7 8 9 9 9 9 7 6 5 4 4
4 2 1 4 7 4 2 2 2 2 2 2 1 1 0 1 0 2 2 2 1 1 1 2 1 1 1 0 1 2 1 1 2 2 2 2 1 1 1 1 1 0 1 2 1 2 0 1 1 1 1 2 2 1 1 1 1 2 2 2 2 2 1 1 3 2 2 2 3 4 6 4 3 6 6 4 6 8 8 8 7 9 9 8 7 7 7 6
2 1 2 8 9 4 1 2 1 1 1 2 0 1 1 2 1 1 2 2 1 1 1 2 3 2 1 2 3 1 1 2 3 3 3 3 3 1 1 1 2 1 1 1 0 1 1 1 1 3 4 3 1 1 1 0 1 3 2 0 1 1 1 1 4 2 1 3 3 3 6 5 4 7 8 7 7 7 6 6 7 9 8 8 9 8 8 7
1 3 6 9 7 2 1 3 2 1 2 1 0 1 0 1 1 1 1 1 1 1 1 1 3 3 3 3 2 1 1 2 4 5 3 2 1 1 2 3 2 1 0 0 1 1 1 1 1 3 3 1 1 1 1 2 1 1 1 1 1 1 0 1 2 1 1 5 5 4 7 5 3 5 6 6 6 7 7 7 8 9 8 8 9 8 8 8
2 4 5 7 5 2 1 3 2 2 2 1 2 1 0 1 1 1 1 3 3 2 1 2 2 2 2 1 2 1 2 1 3 3 1 1 1 1 1 1 1 1 1 1 1 1 1 0 1 2 4 3 2 1 2 3 2 1 2 2 3 4 1 1 1 1 2 6 5 5 9 6 2 5 8 10 12 12 11 9 8 8 8 8 8 8 8 8
3 3 2 4 3 2 1 1 1 1 1 2 1 1 1 1 2 1 1 2 3 2 2 1 0 1 1 2 2 2 2 2 2 1 1 1 1 1 1 2 3 2 2 2 2 1 1 1 2 1 2 4 3 1 1 1 0 1 1 1 3 5 5 2 1 2 5 5 5 5 10 10 6 6 10 14 15 14 14 12 10 9 9 9 9 9 8 8
2 1 1 1 2 1 0 1 2 2 0 1 1 1 2 2 1 1 1 3 3 2 1 1 1 1 1 1 1 3 3 4 4 2 2 2 1 0 1 1 2 2 2 2 3 1 0 3 4 5 6 6 5 4 1 2 3 3 3 4 4 5 6 4 1 5 6 4 5 9 11 14 14 9 10 14 14 15 17 17 15 13 11 11 10 10 9 8
1 1 1 1 2 1 1 2 3 3 2 2 1 0 1 2 1 1 2 2 1 2 1 1 2 2 2 2 3 4 5 5 5 5 4 4 3 1 1 1 2 1 0 1 2 1 0 4 4 7 8 8 8 7 5 3 5 6 7 8 7 5 6 7 7 10 5 4 10 14 9 13 17 11 10 15 16 17 19 19 18 16 14 13 12 12 12 11
2 2 2 2 1 0 1 2 4 4 4 3 2 1 0 2 2 1 1 1 1 1 1 2 4 5 5 4 3 3 3 3 3 4 4 4 2 2 2 0 2 1 1 1 1 1 1 4 4 4 8 10 8 7 6 4 5 6 7 9 11 9 9 10 12 13 6 4 14 19 13 16 19 14 13 18 17 17 20 20 18 16 15 15 15 14 12 11
3 2 2 2 2 1 2 2 3 4 3 2 2 1 1 3 4 2 0 1 0 2 3 3 3 5 6 5 2 2 2 1 2 2 1 0 0 1 2 2 1 0 1 1 1 1 1 3 3 2 6 9 6 5 5 5 6 7 9 12 13 13 12 11 12 13 10 11 18 21 20 21 19 14 15 18 16 15 18 19 17 14 14 15 15 15 12 9
3 2 3 3 3 2 2 2 2 3 3 2 2 2 1 3 5 3 1 2 2 2 3 3 5 4 3 2 2 2 2 4 4 3 3 3 2 0 2 2 1 1 1 0 1 1 2 1 0 2 4 8 7 5 5 6 8 8 10 14 15 13 12 12 12 13 12 13 17 18 19 20 14 8 13 17 14 12 15 18 16 12 11 12 14 14 12 10
3 2 2 3 4 2 1 2 1 2 2 3 3 1 0 2 3 3 2 0 1 3 3 4 6 5 4 3 3 3 5 7 6 5 5 4 3 2 1 2 2 2 1 1 1 1 3 1 2 2 2 8 7 4 3 2 3 6 12 17 17 13 10 11 11 11 10 12 15 15 15 15 10 4 9 14 12 10 13 16 14 10 9 10 13 13 13 13
4 3 1 2 3 2 2 2 2 2 1 2 2 1 2 2 4 4 3 1 5 8 7 7 7 5 3 3 4 4 6 7 7 7 5 5 5 5 4 6 5 4 3 2 1 3 4 2 2 1 3 8 6 1 3 3 3 6 11 13 14 13 12 13 11 11 11 10 11 11 12 14 11 7 10 15 14 12 12 12 11 11 12 12 12 12 12 11
Wind_Direction
13 12 10 9 7 5 4 3 1 360 358 353 347 340 334 333 334 335 333 331 331 337 336 327 311 285 271 271 276 281 287 297 300 278 251 254 303 291 281 274 272 265 243 232 237 255 248 227 222 220 225 220 213 187 169 192 207 213 226 234 256 282 333 355 356 17 290 104 120 194 211 201 137 159 162 79 252 245 260 246 224 229 229 240 232 153 151 153
9 8 7 6 4 3 2 0 358 356 355 352 348 340 333 328 326 329 330 330 329 335 338 338 340 324 288 280 281 279 283 284 279 272 249 235 277 286 280 269 258 239 219 220 234 251 252 240 204 195 223 231 178 158 176 171 192 221 252 257 262 351 7 355 360 18 11 28 116 162 216 257 126 150 152 150 229 204 237 250 229 239 237 233 233 196 165 161
7 5 4 3 2 0 359 357 356 354 352 351 348 342 335 329 325 323 323 326 325 330 337 339 348 350 328 302 288 276 281 278 271 260 191 225 279 291 286 266 246 219 211 222 258 280 292 305 267 202 229 250 185 166 193 169 190 219 266 268 286 10 12 26 19 32 23 6 58 126 144 288 101 111 125 213 253 219 223 228 210 232 237 227 223 208 188 178
8 6 3 1 359 358 356 354 352 351 350 348 347 343 336 329 324 319 313 318 321 326 335 337 339 348 351 338 320 266 267 276 281 96 104 310 303 303 300 269 239 213 210 224 274 289 289 288 275 247 251 262 207 171 192 169 152 276 237 254 13 12 357 35 32 30 15 6 13 79 90 276 187 129 167 219 256 246 235 221 207 220 229 224 215 205 196 187
11 8 5 1 359 357 355 353 351 349 347 345 345 343 337 328 321 317 310 310 316 321 331 336 328 329 341 340 357 118 175 294 75 84 357 329 319 316 308 275 239 215 207 219 269 272 265 264 260 254 244 260 246 190 162 112 69 270 240 302 45 29 331 27 59 36 358 339 323 100 111 297 126 161 212 219 236 235 227 210 210 215 201 188 184 186 189 191
13 10 6 3 360 357 355 353 351 348 345 343 343 341 337 328 318 314 309 303 308 313 321 332 324 314 320 324 10 136 218 1 99 46 329 333 327 326 314 285 245 219 207 225 261 255 251 255 245 250 247 263 277 272 80 76 28 278 260 55 68 76 279 3 59 29 343 320 284 294 344 339 318 255 221 209 232 233 211 136 133 142 127 114 109 146 175 191
14 11 7 3 0 357 354 352 352 350 346 343 341 340 337 330 318 312 308 301 301 305 314 325 319 311 309 151 139 149 285 4 84 0 342 341 339 341 329 305 244 212 215 253 258 248 253 257 247 273 280 279 288 319 67 70 161 240 267 159 102 94 227 26 57 64 331 295 296 354 331 289 239 258 230 218 235 237 240 236 165 161 143 132 156 190 197 204
15 12 8 4 0 356 353 351 351 350 348 344 340 339 337 331 319 309 304 297 294 298 308 317 316 315 219 144 153 193 217 211 26 5 350 347 357 2 4 8 271 203 247 267 270 285 296 273 262 281 282 279 318 13 66 281 185 198 269 64 102 287 175 99 103 205 278 267 298 334 285 260 241 262 277 250 246 239 240 246 235 227 210 196 206 210 215 223
14 11 8 5 1 356 352 349 349 349 348 344 341 339 336 331 320 307 301 292 285 290 301 307 310 306 181 169 245 258 164 160 17 3 354 353 5 13 34 58 280 226 262 267 277 298 304 291 284 328 326 311 335 9 105 276 209 211 299 36 152 198 144 127 208 205 204 241 271 296 269 260 246 264 271 255 250 245 233 237 238 236 239 237 228 220 219 224
11 9 7 4 1 356 351 348 347 347 347 344 341 338 334 330 319 307 299 288 277 279 291 296 292 268 191 197 271 274 139 106 43 357 357 0 2 16 23 359 265 225 258 265 253 264 267 319 336 355 349 306 270 46 106 139 254 295 318 305 250 163 168 172 225 212 171 239 213 231 270 269 237 121 259 251 246 232 213 224 225 217 232 237 234 228 222 222
8 6 4 3 0 357 352 348 345 345 346 344 341 338 334 328 317 307 297 280 269 274 282 284 261 224 206 227 278 277 133 102 38 346 357 9 357 14 8 344 305 220 250 273 254 250 266 319 340 330 4 344 260 140 114 216 271 314 309 292 226 197 237 197 218 237 159 238 205 214 266 268 198 178 247 246 163 162 182 209 210 209 222 224 230 227 221 219
4 3 2 0 358 356 353 349 345 345 345 344 341 338 334 326 317 307 294 270 260 269 275 274 235 217 239 255 255 173 129 126 35 3 360 4 353 358 359 351 339 210 226 272 278 283 283 308 331 288 296 355 314 133 179 227 256 343 283 290 210 201 250 202 196 184 156 198 171 196 283 261 196 217 247 239 177 165 186 216 215 216 216 215 227 223 216 213
0 360 359 358 356 355 353 349 346 345 345 343 341 339 334 327 320 309 285 256 253 264 268 256 214 206 258 268 214 152 131 154 59 24 3 359 2 330 347 355 5 292 243 242 265 295 288 280 292 282 358 11 314 156 225 204 88 266 195 251 290 284 264 180 174 147 155 197 155 151 307 272 213 225 245 222 165 176 200 227 227 223 217 212 220 218 211 202
358 357 356 356 355 353 351 350 348 346 345 343 341 340 336 330 322 308 276 245 250 260 255 225 194 187 259 270 154 166 159 187 191 9 354 9 26 280 328 13 25 359 290 222 245 278 269 156 323 349 53 9 283 203 232 154 236 276 188 199 201 272 270 135 134 150 163 198 160 157 264 276 275 229 224 185 166 180 204 226 228 225 219 215 219 209 205 207
357 355 353 354 353 351 350 350 349 346 346 344 340 341 340 336 328 308 269 232 241 241 211 190 186 185 275 252 133 179 198 187 197 317 340 39 139 229 171 111 59 54 45 132 196 195 131 103 24 89 78 296 293 271 243 186 207 250 243 265 204 202 228 144 89 167 192 273 183 176 243 276 298 213 187 177 178 193 215 231 231 228 225 227 227 199 196 215
355 354 352 352 353 351 348 349 349 347 348 346 341 341 346 345 347 348 271 218 234 187 159 168 190 202 294 248 163 195 195 194 238 303 328 36 171 179 148 166 159 85 53 108 133 107 125 111 5 243 113 265 227 236 269 268 239 218 198 263 250 207 216 174 285 239 224 292 211 200 246 287 290 202 182 188 196 206 221 231 230 232 238 240 230 197 188 198
351 351 351 352 353 351 348 348 348 347 349 347 342 343 356 355 19 66 53 65 133 167 153 125 166 189 278 140 166 224 111 130 313 306 316 354 210 172 163 194 197 178 167 143 146 11 182 167 68 271 210 228 230 212 316 300 266 235 193 254 267 231 235 223 270 273 231 246 226 209 232 262 267 264 251 225 207 213 225 230 230 234 240 234 214 194 189 182
346 347 348 350 352 352 349 347 349 349 350 348 342 340 351 350 10 51 36 59 106 157 161 92 109 176 249 164 167 30 45 335 303 305 302 338 335 181 198 218 191 159 165 201 211 182 187 173 127 258 227 215 220 190 188 244 251 320 243 264 292 282 263 250 197 227 222 216 227 232 244 259 268 271 267 248 212 215 230 231 229 231 236 230 205 196 193 180
342 342 344 346 350 352 350 349 352 353 352 350 344 337 341 335 296 248 3 353 101 150 243 123 169 221 187 138 113 354 340 304 297 314 276 328 325 222 217 238 227 163 202 243 174 168 181 171 162 252 243 215 192 189 215 247 258 297 293 270 285 293 279 264 109 176 228 217 235 237 243 263 277 279 278 272 240 230 240 236 224 218 226 230 216 202 188 177
339 339 338 341 347 351 351 352 358 1 2 359 356 352 355 347 296 234 351 326 310 17 329 37 305 265 169 109 347 335 321 287 237 123 19 335 324 230 211 207 197 196 239 216 158 167 115 197 226 215 251 330 21 9 298 294 274 282 291 278 268 271 272 100 105 222 236 271 256 253 260 272 282 282 282 281 265 248 245 243 229 210 214 223 220 209 180 162
339 336 335 336 342 348 351 356 5 12 19 21 32 49 47 16 342 335 339 314 98 61 321 6 342 288 342 18 355 351 332 214 216 146 30 345 324 207 190 177 178 204 222 185 135 99 92 225 238 165 14 332 332 336 344 319 295 283 277 284 283 267 262 82 95 240 213 46 279 306 310 287 282 279 277 279 269 252 238 235 232 217 220 218 211 202 171 140
342 337 334 334 337 346 349 358 13 19 30 39 51 67 87 52 313 226 279 295 296 111 242 330 307 257 20 8 2 8 139 218 218 154 11 348 202 193 176 174 217 212 183 145 134 169 212 216 200 102 316 285 253 324 3 317 291 280 260 279 292 277 290 43 66 237 193 168 285 331 328 290 281 278 275 275 254 252 255 233 233 220 230 217 198 187 159 144
346 341 337 334 336 343 347 3 19 20 34 44 56 68 48 355 292 198 177 277 287 195 182 321 302 312 84 276 355 355 257 291 166 148 360 349 175 201 296 212 242 230 184 179 183 220 236 204 130 110 289 281 225 101 332 266 252 243 235 245 266 293 23 259 299 287 219 183 292 310 303 283 283 278 274 273 193 310 335 304 287 253 250 226 173 165 158 164
349 346 341 338 338 342 349 16 24 23 33 43 51 39 359 347 260 177 193 259 265 29 70 35 332 4 29 292 338 337 289 346 8 64 1 353 328 356 310 252 270 250 227 206 201 228 234 120 78 243 245 298 255 133 243 259 258 238 217 232 271 342 30 225 310 314 279 89 306 296 303 287 289 302 297 304 25 300 256 221 256 245 247 256 113 136 167 172
349 348 344 344 342 343 354 39 25 16 11 38 34 4 349 348 166 170 213 278 255 281 5 57 306 354 359 308 312 333 5 355 355 357 5 8 347 350 354 322 299 241 240 154 204 254 267 66 20 227 185 95 280 217 191 181 272 283 147 49 329 6 2 316 328 328 339 346 283 353 0 295 297 336 301 280 237 269 210 189 230 224 220 226 209 202 193 187
348 348 347 348 348 349 4 90 6 357 0 55 357 339 340 344 164 168 210 296 254 276 87 294 219 308 1 345 294 355 31 311 2 4 1 8 316 275 9 313 170 192 13 55 20 273 201 10 327 284 164 121 171 239 201 144 138 281 234 287 317 4 355 327 342 353 349 296 260 118 84 272 292 300 273 256 242 266 231 202 231 213 198 208 211 206 189 184
348 348 347 350 356 1 14 353 354 1 27 345 331 330 336 346 163 170 247 298 250 286 111 223 224 283 329 38 294 337 358 278 349 9 347 356 331 256 189 231 147 340 296 57 346 266 118 116 316 311 183 164 189 236 235 153 141 226 223 235 318 25 325 327 4 239 234 294 290 175 162 254 291 270 265 295 291 282 264 231 232 213 204 202 201 202 186 179
347 347 346 350 2 14 16 344 358 30 1 325 327 332 342 104 160 173 8 329 257 89 131 190 273 270 245 137 119 317 286 296 335 288 232 329 359 126 209 283 7 46 164 137 215 262 54 144 202 187 184 212 216 298 324 276 161 201 206 210 130 132 200 205 182 242 259 3 313 245 174 225 276 265 296 344 299 287 272 230 214 207 212 205 197 195 181 175
346 346 346 350 2 16 5 351 1 4 332 328 333 339 0 143 183 311 23 277 343 59 272 224 57 310 274 173 163 225 225 48 2 195 179 243 343 124 184 290 358 93 223 193 209 279 39 131 219 64 189 232 18 11 354 345 318 262 236 243 236 196 215 207 198 251 296 46 262 242 188 196 271 272 287 339 270 271 263 197 180 195 204 203 197 186 172 165
344 346 345 352 9 1 351 359 318 324 328 331 334 340 37 156 271 20 203 254 43 46 277 13 30 294 317 338 87 228 203 131 217 219 166 177 306 140 146 250 294 164 249 195 103 67 98 132 333 32 358 55 96 27 350 351 328 314 299 276 262 229 185 187 206 195 57 247 250 242 193 171 283 277 252 200 217 236 191 101 129 177 195 202 195 179 169 165
343 343 345 357 7 352 347 353 320 325 329 334 335 343 71 235 322 94 212 211 71 310 283 31 347 293 349 22 42 317 348 42 330 334 333 354 304 267 306 143 353 342 287 216 86 89 110 74 63 58 336 343 111 30 344 330 324 333 313 311 318 314 23 34 86 119 179 243 256 289 353 107 215 261 260 276 286 253 87 55 231 210 205 205 196 184 174 166
341 339 344 359 355 354 346 319 323 326 331 337 337 337 243 316 281 225 249 26 48 314 28 68 324 335 355 22 197 319 353 303 326 23 42 357 312 267 271 154 16 3 295 277 304 239 107 70 89 109 334 4 19 325 341 336 339 340 315 333 353 318 336 298 215 167 210 237 237 224 31 81 228 256 271 286 292 284 277 267 209 158 290 250 215 202 183 164
339 335 332 332 341 349 334 326 326 326 334 343 339 242 288 307 242 227 260 330 290 288 73 183 277 295 308 318 250 321 347 257 327 32 182 58 322 297 35 65 59 125 235 322 340 316 332 323 345 56 356 7 8 13 13 345 7 296 279 88 171 222 274 251 237 226 222 246 256 225 63 282 261 267 251 262 280 275 264 178 105 87 31 331 332 333 328 157
338 331 312 317 332 329 331 337 332 331 338 344 298 261 105 213 262 263 284 289 249 254 216 178 294 271 230 20 313 304 319 273 348 341 268 79 27 327 31 43 40 138 198 332 317 266 249 294 322 1 310 324 1 108 149 266 271 235 221 98 154 245 278 250 239 265 262 296 291 284 357 183 209 255 233 246 278 271 264 222 93 81 105 340 341 340 338 303
339 326 300 313 325 314 333 342 334 338 339 322 237 217 179 217 263 344 255 278 46 304 279 146 281 274 260 31 271 328 60 193 312 339 320 16 343 322 1 15 16 50 160 218 290 273 201 235 266 241 235 299 348 126 160 113 307 280 19 74 252 267 319 270 248 258 279 349 294 241 256 217 216 289 287 282 287 279 277 340 77 1 264 172 304 290 280 265
348 343 300 297 281 286 328 341 335 345 340 295 215 219 217 223 243 117 51 300 51 339 320 295 248 268 301 308 279 292 109 161 283 341 9 271 319 340 28 351 344 9 63 150 328 5 272 260 258 214 226 223 169 190 189 134 176 332 38 328 246 188 139 275 304 9 77 316 261 196 246 278 293 297 288 292 306 292 274 94 96 274 266 86 279 271 257 244
349 344 303 266 252 275 321 340 338 349 331 262 225 235 214 175 268 26 65 10 187 302 333 331 308 37 293 279 29 243 149 294 306 347 301 270 299 323 113 10 299 353 1 310 184 116 128 268 265 217 239 239 133 41 323 271 110 94 152 263 278 144 132 199 312 343 1 268 255 180 229 270 261 287 309 357 344 315 302 154 333 11 52 288 275 268 257 246
334 320 289 248 252 280 325 344 339 333 258 242 250 249 182 156 292 35 74 57 247 250 23 224 216 86 328 280 313 121 114 352 343 7 306 268 239 195 146 345 343 58 313 314 329 115 94 323 274 303 2 205 107 52 320 308 75 149 243 293 358 100 271 272 160 318 296 273 280 243 250 258 187 228 295 311 311 337 9 15 5 10 7 326 312 307 284 268
316 296 277 239 261 296 330 337 328 290 219 214 234 244 213 173 150 74 37 328 209 160 196 213 202 83 2 324 1 12 83 58 332 351 307 221 243 133 128 189 282 104 295 317 1 290 78 107 258 284 283 196 60 104 239 309 40 287 325 348 43 161 195 213 203 158 227 273 287 287 284 275 230 225 243 289 340 18 13 359 351 346 346 354 360 354 335 308
311 285 252 311 313 311 327 329 306 225 214 204 205 223 345 30 138 98 45 352 197 195 263 239 161 125 258 308 22 287 151 185 253 267 245 296 356 358 99 117 319 61 327 344 20 304 31 129 217 286 328 347 109 193 194 161 120 120 128 166 227 212 190 250 268 193 195 246 266 279 271 236 248 285 271 49 21 11 356 352 341 325 327 334 331 316 293 284
310 282 232 355 344 317 307 312 253 200 224 233 196 194 330 335 48 110 91 38 1 356 1 317 274 198 249 330 255 245 207 230 229 211 249 250 216 261 278 350 338 113 18 12 353 301 347 147 206 271 290 258 216 198 89 117 136 128 154 189 193 189 165 320 293 243 183 228 249 272 275 251 257 302 307 336 2 352 345 346 325 305 305 300 292 277 254 249
262 258 313 346 343 318 230 226 212 115 236 250 240 96 2 320 311 121 117 75 342 260 24 333 266 236 225 225 232 248 276 264 235 213 232 222 205 213 191 243 288 252 127 61 248 246 141 109 296 257 242 234 182 96 47 229 171 120 127 5 11 342 142 204 268 297 335 295 303 286 277 266 234 262 293 325 343 336 326 321 303 290 289 283 280 272 255 245
241 302 314 333 342 344 251 226 183 147 209 226 37 137 109 316 298 109 145 179 184 169 79 294 253 241 227 210 191 197 216 245 234 223 231 238 242 61 163 206 257 326 59 87 3 1 82 129 252 267 270 319 79 137 308 314 35 97 219 190 164 268 18 147 235 271 308 284 299 297 275 264 251 281 311 324 321 319 308 293 282 280 282 278 275 276 273 266
312 288 290 317 339 8 283 234 210 220 204 73 15 309 196 292 252 216 221 214 192 172 187 226 247 253 238 146 103 214 216 222 248 247 254 263 287 75 162 220 347 21 36 20 342 341 314 174 82 335 315 320 327 348 353 348 32 154 253 196 174 221 267 31 278 202 256 242 222 257 269 254 269 327 324 312 309 311 301 285 275 276 284 284 284 291 294 292
301 255 238 293 312 337 274 258 324 298 142 86 355 262 198 210 222 211 267 253 232 226 228 218 66 283 281 80 94 249 237 189 239 316 26 266 253 110 105 22 12 41 67 1 320 346 219 223 139 145 256 262 260 223 161 338 4 166 217 187 180 201 203 219 285 243 252 237 193 224 267 273 283 309 303 298 301 301 297 294 292 288 289 291 295 297 299 303
318 279 257 283 314 346 325 12 353 320 353 67 267 233 190 198 188 150 210 250 262 272 278 327 35 301 277 114 179 249 241 211 216 257 317 290 280 33 102 75 30 40 57 322 300 11 285 251 205 197 220 233 244 248 274 348 318 290 285 264 232 199 191 192 221 239 253 293 271 243 255 278 286 290 292 294 299 300 299 300 299 297 295 294 294 294 296 300
284 302 343 4 349 358 65 40 8 337 340 331 290 111 160 210 209 155 191 210 1 352 283 231 198 215 218 181 194 228 233 223 217 229 255 259 258 313 296 170 114 69 4 291 276 126 332 273 222 206 235 248 252 266 286 303 280 274 283 278 262 230 191 187 221 248 265 335 283 263 257 275 281 285 292 292 294 295 294 295 296 299 300 298 295 294 295 294
299 340 33 28 328 333 69 31 0 345 349 342 326 27 5 227 201 176 212 218 33 343 260 219 203 219 237 231 217 239 240 229 221 219 229 237 248 357 326 10 92 149 164 49 342 114 190 267 229 207 254 261 252 254 257 252 259 263 264 267 265 251 224 214 233 250 251 238 263 272 276 272 274 281 284 281 283 287 288 289 291 295 298 298 296 295 293 291
346 335 9 1 333 344 349 334 330 325 321 314 298 296 288 252 230 227 145 114 187 225 206 221 228 225 237 246 253 262 262 293 275 242 199 262 340 6 293 284 17 15 121 92 261 168 151 255 234 217 273 276 264 250 241 236 252 261 256 254 255 251 242 239 246 252 246 239 255 270 276 271 272 278 277 275 276 279 282 284 288 292 294 295 297 298 296 290
4 341 2 346 310 287 263 254 302 310 280 241 246 250 235 245 257 282 49 133 242 246 186 228 278 275 274 306 319 296 340 6 346 333 9 358 342 25 248 239 42 358 347 123 256 214 162 221 319 41 313 290 273 257 248 236 234 248 258 255 252 252 251 250 254 257 253 253 261 271 277 275 273 264 264 269 271 272 277 282 287 289 289 294 300 304 307 304
5 320 342 323 302 302 276 235 221 268 259 225 229 243 193 235 273 318 329 172 23 24 41 1 328 324 338 346 347 359 11 9 352 343 350 331 310 333 301 289 1 2 256 191 234 196 176 246 337 28 300 278 274 269 262 252 245 259 263 258 252 250 249 246 246 248 248 258 270 276 274 275 277 257 261 274 277 273 276 283 291 296 299 304 307 308 312 310
346 303 289 305 302 309 306 280 237 233 249 221 236 342 20 351 359 1 328 23 71 54 30 6 351 340 338 346 354 3 358 341 323 316 308 285 283 283 271 271 283 275 235 218 225 200 185 227 277 171 231 270 278 195 138 63 3 278 258 249 243 240 241 244 248 249 245 249 263 267 264 272 287 295 284 285 287 283 282 287 295 303 307 310 312 312 312 313